Pickwick Lake Weather Center

Moon Phase Calendar



Pickwick Lake Water Level
Online Cameras

 


      

Current Conditions in Cherokee
9/27/2022 6:05:44 AM

46°F
Feels Like 45
Clear
Humidity
88%
Pressure
30.09"
Wind
3.2 mph (NNE)
Dew Point
43°F
UV Index
0/10 (Low)
Visibility
6 mi

Hourly Forecast

Date & Time Tue, Sep 27
6:00 AM
Tue, Sep 27
7:00 AM
Tue, Sep 27
8:00 AM
Tue, Sep 27
9:00 AM
Tue, Sep 27
10:00 AM
Tue, Sep 27
11:00 AM
Tue, Sep 27
12:00 PM
Tue, Sep 27
1:00 PM
Tue, Sep 27
2:00 PM
Tue, Sep 27
3:00 PM
Tue, Sep 27
4:00 PM
Tue, Sep 27
5:00 PM
Tue, Sep 27
6:00 PM
Tue, Sep 27
7:00 PM
Tue, Sep 27
8:00 PM
Tue, Sep 27
9:00 PM
Tue, Sep 27
10:00 PM
Tue, Sep 27
11:00 PM
Wed, Sep 28
12:00 AM
Wed, Sep 28
1:00 AM
Wed, Sep 28
2:00 AM
Wed, Sep 28
3:00 AM
Wed, Sep 28
4:00 AM
Wed, Sep 28
5:00 AM
Wed, Sep 28
6:00 AM
Wed, Sep 28
7:00 AM
Wed, Sep 28
8:00 AM
Wed, Sep 28
9:00 AM
Wed, Sep 28
10:00 AM
Wed, Sep 28
11:00 AM
Wed, Sep 28
12:00 PM
Wed, Sep 28
1:00 PM
Wed, Sep 28
2:00 PM
Wed, Sep 28
3:00 PM
Wed, Sep 28
4:00 PM
Wed, Sep 28
5:00 PM
Wed, Sep 28
6:00 PM
Wed, Sep 28
7:00 PM
Wed, Sep 28
8:00 PM
Wed, Sep 28
9:00 PM
Wed, Sep 28
10:00 PM
Wed, Sep 28
11:00 PM
Thu, Sep 29
12:00 AM
Thu, Sep 29
1:00 AM
Thu, Sep 29
2:00 AM
Thu, Sep 29
3:00 AM
Thu, Sep 29
4:00 AM
Thu, Sep 29
5:00 AM
Condition
Clear

Clear

Clear

Clear

Clear

Clear

Clear

Clear

Clear

Clear

Clear

Clear

Clear

Clear

Clear

Clear

Clear

Clear

Clear

Clear

Clear

Clear

Clear

Clear

Clear

Clear

Clear

Clear

Clear

Clear

Clear

Clear

Clear

Clear

Clear

Clear

Clear

Clear

Clear

Clear

Clear

Clear

Clear

Clear

Clear

Clear

Clear

Clear
Temperature 46°F47°F50°F55°F63°F70°F73°F75°F76°F77°F76°F75°F70°F63°F60°F58°F56°F55°F54°F52°F52°F51°F50°F50°F49°F49°F54°F60°F65°F68°F70°F71°F71°F71°F70°F68°F64°F59°F56°F52°F51°F51°F53°F53°F53°F52°F51°F50°F
Feels Like 45°F45°F49°F53°F61°F68°F71°F73°F75°F75°F75°F73°F68°F61°F58°F56°F54°F53°F51°F50°F49°F48°F48°F48°F48°F47°F52°F58°F62°F66°F67°F68°F69°F69°F68°F66°F62°F57°F53°F50°F49°F49°F51°F51°F51°F50°F49°F46°F
Cloudiness 0%0%0%0%0%0%0%0%0%0%0%0%0%0%0%0%0%0%0%0%0%0%0%0%0%0%0%0%0%0%0%0%0%0%0%0%0%0%0%0%0%0%0%0%0%0%0%0%
Visibility 6 mi6 mi6 mi6 mi6 mi6 mi6 mi6 mi6 mi6 mi6 mi6 mi6 mi6 mi6 mi6 mi6 mi6 mi6 mi6 mi6 mi6 mi6 mi6 mi6 mi6 mi6 mi6 mi6 mi6 mi6 mi6 mi6 mi6 mi6 mi6 mi6 mi6 mi6 mi6 mi6 mi6 mi6 mi6 mi6 mi6 mi6 mi6 mi
Precipitation 0%0%0%0%0%0%0%0%0%0%0%0%0%0%0%0%0%0%0%0%0%0%0%0%0%0%0%0%0%0%0%0%0%0%0%0%0%0%0%0%0%0%0%0%0%0%0%0%
Humidity 88%81%72%59%44%30%27%25%24%24%25%28%37%44%47%50%52%54%55%57%59%60%61%61%62%63%55%40%31%27%24%22%20%20%23%29%36%42%51%59%66%66%64%64%63%65%68%71%
Dew Point 43°F41°F41°F41°F40°F37°F37°F37°F36°F37°F37°F40°F42°F40°F40°F39°F39°F38°F37°F37°F37°F37°F37°F36°F36°F36°F38°F35°F34°F32°F30°F29°F28°F28°F30°F34°F36°F36°F37°F38°F39°F40°F40°F40°F40°F40°F40°F40°F
Pressure 30.09"30.09"30.12"30.12"30.15"30.15"30.15"30.12"30.09"30.09"30.06"30.06"30.09"30.12"30.12"30.15"30.18"30.21"30.21"30.21"30.24"30.24"30.24"30.24"30.27"30.27"30.3"30.3"30.3"30.3"30.3"30.27"30.24"30.21"30.21"30.24"30.24"30.27"30.27"30.3"30.3"30.3"30.3"30.27"30.27"30.27"30.27"30.27"
Wind Speed 3.2 mph3.6 mph3.6 mph5.9 mph7.3 mph8.8 mph9.2 mph9.5 mph9.7 mph10.4 mph10.9 mph9.1 mph6.8 mph5.5 mph5.7 mph5.6 mph5.5 mph5.6 mph5.8 mph5.4 mph4.9 mph4.6 mph4.2 mph4.5 mph4.4 mph4.7 mph5.5 mph8.4 mph10.2 mph11.7 mph12.7 mph13.5 mph13.5 mph13.2 mph13.2 mph12 mph10.8 mph9.1 mph7.4 mph6.2 mph6.1 mph7.4 mph8.3 mph8.9 mph9.7 mph9.9 mph9.4 mph8.4 mph
Wind
Direction
19°
NNE
11°
N

N

N
355°
N
354°
N
356°
N
357°
N
359°
N

N

N
14°
NNE
28°
NNE
42°
NE
44°
NE
53°
NE
66°
ENE
72°
ENE
73°
ENE
70°
ENE
67°
ENE
56°
NE
47°
NE
33°
NNE
36°
NE
24°
NNE
28°
NNE
28°
NNE
24°
NNE
21°
NNE
17°
NNE
16°
NNE
17°
NNE
20°
NNE
26°
NNE
33°
NNE
33°
NNE
31°
NNE
33°
NNE
33°
NNE
27°
NNE
32°
NNE
41°
NE
36°
NE
44°
NE
48°
NE
49°
NE
47°
NE

Daily Forecast

Date High Low Precip. Humidity
Today
Sep 27

Clear
77 °F
46 °F
0%
27%
Wednesday
Sep 28

Clear
71 °F
49 °F
0%
24%
Thursday
Sep 29

Clear
74 °F
48 °F
0%
28%
Friday
Sep 30

Clear
79 °F
50 °F
0%
27%
Saturday
Oct 1

Rain
74 °F
56 °F
33%
44%
Sunday
Oct 2

Rain
74 °F
63 °F
39%
71%
Monday
Oct 3

Clouds
83 °F
60 °F
0%
47%
Tuesday
Oct 4

Clouds
80 °F
64 °F
0%
50%
Wednesday
Oct 5

Clear
84 °F
61 °F
0%
36%
Thursday
Oct 6

Clear
85 °F
62 °F
0%
37%
Friday
Oct 7

Clouds
86 °F
62 °F
0%
36%
Saturday
Oct 8

Clear
87 °F
63 °F
0%
38%
Sunday
Oct 9

Clear
88 °F
63 °F
0%
36%
Monday
Oct 10

Clouds
89 °F
66 °F
0%
35%
Tuesday
Oct 11

Clear
86 °F
62 °F
0%
33%
Wednesday
Oct 12

Clouds
82 °F
60 °F
0%
45%

Temperature 8-14 Day Outlook



Precipitation 8-14 Day Outlook




Quick Links
Pickwick Lake News
Pickwick Lake Photos
Pickwick Lake Videos




About Us
Contact Us
Site Map
Search Site
Advertise With Us
   
www.PickwickLake.info
THE PICKWICK LAKE WEBSITE

Copyright 2022, Lakes Online
Privacy    |    Legal